Miscellaneous Local Product
Issued by NWS North Platte, NE

Home | Current Version | Previous Version | Text Only | Print | Product List | Glossary On
Versions: 1 2 3 4 5 6 7 8 9 10 11 12 13 14 15 16 17 18 19 20 21 22 23 24 25 26 27 28 29 30 31 32 33 34 35 36 37 38 39 40 41 42 43 44 45 46 47 48 49 50
637
AXUS43 KLBF 040310
MISLBF


WESTERN AND NORTH CENTRAL NEBRASKA HOURLY WEATHER ROUNDUP
NATIONAL WEATHER SERVICE NORTH PLATTE NE
900 PM CST SAT DEC 03 2016

NOTE: "FAIR" INDICATES FEW OR NO CLOUDS BELOW 12,000 FEET WITH NO
SIGNIFICANT WEATHER AND/OR OBSTRUCTIONS TO VISIBILITY.

NOTE: STATIONS NOT REPORTING VARIABLES SUCH AS SKY/WEATHER OR
PRESSURE ARE PROVIDED BY RAWS AND APRS NETWORKS AND ARE NOT UNDER
NATIONAL WEATHER SERVICE QUALITY CONTROL.

...OBSERVATIONS IN AND NEAR THE EASTERN PANHANDLE OF NEBRASKA...

CITY           SKY/WX    TMP DP  RH WIND       PRES   REMARKS
PINE RIDGE     CLEAR     26  19  74 CALM      29.95R
CHADRON        PTCLDY    28  15  58 SW13      29.97S WCI  17
ALLIANCE       CLOUDY    29  17  61 W9        29.97R WCI  20
SIDNEY         CLOUDY    27  14  58 NW14      30.00F WCI  16
CRESCENT LAKE    N/A     33  17  53 W6          N/A  WCI  27
$$

...OBSERVATIONS IN NORTHERN NEBRASKA AND FAR SOUTHERN SOUTH DAKOTA...

CITY           SKY/WX    TMP DP  RH WIND       PRES   REMARKS
WINNER         FAIR      29  22  75 SW8       29.93S WCI  21
VALENTINE      PTCLDY    26  19  74 SW8       29.94S WCI  18
THEDFORD       PTCLDY    30  16  54 S5        29.96F WCI  26
AINSWORTH      PTCLDY    28  18  65 W9        29.95S WCI  20
O`NEILL        MOCLDY    33  32  95 S13       29.98F WCI  24
ORD            CLOUDY    33  29  85 S9        30.02S WCI  25
BROKEN BOW     CLOUDY    34  31  88 S13       30.00R WCI  25
VALENTINE NWR    N/A     28  15  57 W5          N/A  WCI  23
BUTTE            N/A     34  31  89 S12G20      N/A  WCI  25
HALSEY           N/A     35  28  76 SW3         N/A
CHAMBERS         N/A     33  31  94 S9          N/A  WCI  25
EWING            N/A     33  31  94 S10G18      N/A  WCI  25
$$

...OBSERVATIONS IN SOUTHWEST NEBRASKA AND FAR NORTHEAST COLORADO...

CITY           SKY/WX    TMP DP  RH WIND       PRES   REMARKS
WRAY           FAIR      32  16  51 NW7       30.01  WCI  26
HOLYOKE        FAIR      34  14  44 NW8       30.01S WCI  27
IMPERIAL       CLEAR     30  16  56 NW7       30.01R WCI  23
OGALLALA       CLOUDY    32  17  53 NW5       30.00R WCI  27
NORTH PLATTE   PTCLDY    33  29  85 S5        30.00R WCI  29
MCCOOK         CLOUDY    35  32  88 SW7       30.02S WCI  29
LEXINGTON      CLOUDY    32  31  95 S6        30.02S WCI  27
STAPLETON        N/A     29  27  91 CALM        N/A
GOTHENBURG       N/A     33  30  90 S5          N/A  WCI  28
CALLAWAY         N/A     32  31  97 S6          N/A  WCI  26
$$

...OBSERVATIONS IN CENTRAL LINCOLN COUNTY AREA...

CITY           SKY/WX    TMP DP  RH WIND       PRES   REMARKS
N.P. AIRPORT   PTCLDY    33  29  85 S5        30.00R WCI  29
N.P. DOWNTOWN    N/A     32  29  90 CALM        N/A
N.P. SOUTHEAST   N/A     32  29  88 MISG        N/A
N.P. HILLCREST   N/A     32  29  90 CALM        N/A
$$

...SOME OBSERVATIONS FROM AROUND THE REGION...

CITY           SKY/WX    TMP DP  RH WIND       PRES   REMARKS
LARAMIE        CLOUDY    18   7  62 SW12      30.02R WCI   5
CHEYENNE       CLOUDY    25   9  50 W9        30.01R WCI  15
DENVER         PTCLDY    28  15  58 CALM      30.02S
AKRON          MOCLDY    28  13  53 W9        30.01S WCI  19
SCOTTSBLUFF    CLEAR     30  14  51 NW8       30.00S WCI  22
RAPID CITY     PTCLDY    27  20  75 W7        29.91R WCI  19
BISMARCK       CLOUDY    26  25  96 S3        29.81F
PIERRE         CLOUDY    29  22  75 SW6       29.89S WCI  23
SIOUX FALLS    CLOUDY    34  33  96 S16       30.03F FOG     WCI  24
OMAHA          LGT SNOW  33  29  85 SE5       30.10F FOG     WCI  29
GRAND ISLAND   CLOUDY    32  32 100 S9        30.05F FOG     WCI  24
KANSAS CITY    LGT RAIN  44  31  60 SE8       30.11F
WICHITA        LGT RAIN  41  41 100 E3        30.07F FOG
OKLAHOMA CITY  CLOUDY    44  43  96 E7        30.04F FOG
DALLAS         DRIZZLE   48  46  93 NE8       30.00R FOG
AMARILLO       CLOUDY    38  38 100 SE9       30.00S FOG     WCI  31
DODGE CITY     RAIN      38  37  97 CALM      30.04S FOG
HAYS           LGT RAIN  33  32  96 CALM      30.06F FOG
GOODLAND       CLOUDY    31  29  92 S8        30.00R WCI  23
$$




USA.gov is the U.S. government's official web portal to all federal, state and local government web resources and services.